Location: ?astrovice
(49.6513°N, 14.9287°E)
Time: 17:55:39
(UTC+00:00)

Cosmos 1908 - Pass Details

Date: 09 April 2020
Orbit: 511 x 531 km, 82.5° (Epoch: 01 June)

Event Time Altitude Azimuth Distance (km) Brightness Sun altitude
Rises 19:06:08 0° 203° (SSW) 2,640 6.7 -13.0°
Reaches altitude 10° 19:08:19 10° 210° (SSW) 1,761 5.9 -13.3°
Maximum altitude 19:12:03 46° 284° (WNW) 718 4.4 -13.9°
Drops below altitude 10° 19:15:50 10° 359° (N) 1,787 6.4 -14.4°
Sets 19:18:04 0° 6° (N) 2,684 7.2 -14.7°
